Wolf 59 — CGBP — position and weather

sailwx.info

Track history (hours):
 
Tides and Currents Weather Stations Pressure Air Temp Water Temp Dewpoint Dewpoint Depression Visibility Wind Speed Wind Dir Waves Ship Positions

Wolf 59

Last reported at 2014-Oct-25 17:07 UTC. Time now 2014-Oct-25 17:40 UTC.
Position N 48°26' W 123°26'.

Length 33 m; draft 2.6 m.

Type: Military. MMSI: 316011515.

Date/timePositionNaut miles runAvg speedWind from/ knotsBaromVisibWave heightAir tempDewpointWater temp
2014-Oct-25 17:07N 48°26' W 123°26'0 0.0
2014-Oct-25 16:22N 48°26' W 123°26'0 0.0
2014-Oct-25 15:31N 48°26' W 123°26'0 0.0
2014-Oct-25 14:22N 48°26' W 123°26'0 0.0
2014-Oct-25 12:28N 48°26' W 123°26'0 0.0
2014-Oct-25 11:31N 48°26' W 123°26'0 0.0
2014-Oct-25 10:31N 48°26' W 123°26'0 0.0
2014-Oct-25 08:22N 48°26' W 123°26'0 0.0
2014-Oct-24 23:31N 48°26' W 123°26'0 0.0
2014-Oct-24 22:19N 48°26' W 123°26'0 0.0
2014-Oct-24 21:13N 48°26' W 123°26'0 0.0
2014-Oct-24 20:25N 48°26' W 123°26'0 0.0
2014-Oct-24 16:22N 48°26' W 123°26'0 0.0
2014-Oct-24 15:31N 48°26' W 123°26'0 0.0
2014-Oct-24 13:31N 48°26' W 123°26'0 0.0
2014-Oct-24 12:31N 48°26' W 123°26'0 0.0
2014-Oct-24 11:31N 48°26' W 123°26'0 0.0
2014-Oct-24 10:31N 48°26' W 123°26'0 0.0
2014-Oct-24 09:10N 48°26' W 123°26'0 0.0
2014-Oct-24 07:25N 48°26' W 123°26'0 0.0
2014-Oct-24 06:31N 48°26' W 123°26'0 0.0
2014-Oct-24 05:07N 48°26' W 123°26'0 0.0
2014-Oct-24 04:25N 48°26' W 123°26'0 0.0
2014-Oct-24 03:19N 48°26' W 123°26'0 0.0
2014-Oct-24 02:25N 48°26' W 123°26'0 0.0
2014-Oct-24 01:31N 48°26' W 123°26'0 0.0
2014-Oct-24 00:25N 48°26' W 123°26'0 0.0
2014-Oct-23 23:19N 48°26' W 123°26'0 0.0
2014-Oct-23 22:07N 48°26' W 123°26'0 0.0
2014-Oct-23 21:22N 48°26' W 123°26'0 0.0
2014-Oct-23 20:28N 48°26' W 123°26'0 0.0
2014-Oct-23 19:19N 48°26' W 123°26'0 0.0
2014-Oct-23 16:25N 48°26' W 123°26'0 0.0
2014-Oct-23 09:07N 48°26' W 123°26'0 0.0
2014-Oct-23 08:10N 48°26' W 123°26'0 0.0
2014-Oct-23 07:25N 48°26' W 123°26'0 0.0
2014-Oct-23 06:31N 48°26' W 123°26'0 0.0
2014-Oct-23 05:31N 48°26' W 123°26'0 0.0
2014-Oct-23 04:31N 48°26' W 123°26'0 0.0
2014-Oct-23 03:28N 48°26' W 123°26'0 0.2
2014-Oct-23 02:32N 48°26' W 123°26'9 9.3
2014-Oct-23 01:33N 48°25' W 123°13'1515.0
2014-Oct-23 00:33N 48°40' W 123°15'10 9.9
2014-Oct-22 23:33N 48°49' W 123°21'1414.1
2014-Oct-22 22:34N 49°02' W 123°28'1413.7
2014-Oct-22 21:33N 49°12' W 123°43'1515.0
2014-Oct-22 20:33N 49°01' W 123°27'8 8.1
2014-Oct-22 19:33N 48°55' W 123°19'4 4.0
2014-Oct-22 18:33N 48°52' W 123°24'3 3.4
2014-Oct-22 17:32N 48°55' W 123°27'7 6.5
2014-Oct-22 16:31N 48°54' W 123°37'3 2.8
2014-Oct-22 15:33N 48°56' W 123°41'1 0.4
2014-Oct-22 11:29N 48°56' W 123°43'0 0.0
2014-Oct-22 10:33N 48°56' W 123°43'0 0.0
2014-Oct-22 09:33N 48°56' W 123°43'0 0.0
2014-Oct-22 08:33N 48°56' W 123°43'0 0.0
2014-Oct-22 07:33N 48°56' W 123°43'0 0.0
2014-Oct-22 06:33N 48°56' W 123°43'0 0.0
2014-Oct-22 05:33N 48°56' W 123°43'0 0.0
2014-Oct-22 04:32N 48°56' W 123°43'0 0.0
2014-Oct-22 03:32N 48°56' W 123°43'0 0.0
2014-Oct-22 02:32N 48°56' W 123°43'1 1.3
2014-Oct-22 01:33N 48°57' W 123°43'7 7.0
2014-Oct-22 00:33N 48°56' W 123°33'1211.9
2014-Oct-21 23:34N 48°47' W 123°20'1818.0
2014-Oct-21 22:34N 48°30' W 123°11'1211.2
2014-Oct-21 21:32N 48°26' W 123°27'0 0.5
2014-Oct-21 20:34N 48°25' W 123°26'1111.5
2014-Oct-21 19:34N 48°33' W 123°13'1716.6
2014-Oct-21 18:33N 48°49' W 123°20'7 6.5
2014-Oct-21 17:31N 48°43' W 123°26'7 7.1
2014-Oct-21 16:33N 48°37' W 123°30'6 6.4
2014-Oct-21 15:33N 48°31' W 123°33'0 0.1
2014-Oct-21 14:16N 48°30' W 123°33'0 0.0
2014-Oct-21 13:31N 48°30' W 123°33'0 0.0
2014-Oct-21 12:13N 48°30' W 123°33'0 0.0
2014-Oct-21 11:25N 48°30' W 123°33'0 0.0
2014-Oct-21 10:10N 48°30' W 123°33'0 0.0
2014-Oct-21 07:13N 48°30' W 123°33'0 0.0
2014-Oct-21 06:22N 48°30' W 123°33'0 0.0
2014-Oct-21 05:31N 48°30' W 123°33'0 0.0
2014-Oct-21 04:31N 48°30' W 123°33'0 0.0
2014-Oct-21 03:25N 48°30' W 123°33'0 0.0
2014-Oct-21 02:28N 48°30' W 123°33'0 0.0
2014-Oct-21 01:31N 48°30' W 123°33'0 0.0
2014-Oct-21 00:16N 48°30' W 123°33'0 0.0
2014-Oct-20 23:27N 48°30' W 123°33'3 2.5
2014-Oct-20 22:15N 48°33' W 123°32'7 9.0
2014-Oct-20 21:31N 48°39' W 123°28'4 4.5
2014-Oct-20 20:33N 48°43' W 123°32'5 5.0
2014-Oct-20 19:33N 48°48' W 123°33'7 6.7
2014-Oct-20 18:33N 48°54' W 123°36'3 2.8
2014-Oct-20 17:33N 48°55' W 123°32'7 6.7
2014-Oct-20 16:33N 48°50' W 123°26'2 2.2
2014-Oct-20 15:30N 48°51' W 123°29'0 0.0
2014-Oct-20 01:23N 48°51' W 123°30'0 0.0
2014-Oct-20 00:30N 48°51' W 123°30'1 0.6
2014-Oct-19 23:32N 48°51' W 123°29'8 8.2
2014-Oct-19 22:32N 48°45' W 123°21'9 8.7
2014-Oct-19 21:33N 48°37' W 123°20'9 8.8
2014-Oct-19 20:34N 48°29' W 123°12'9 9.2
2014-Oct-19 19:34N 48°22' W 123°20'5 5.5
2014-Oct-19 18:34N 48°25' W 123°27'1 0.0
2014-Oct-18 20:27N 48°26' W 123°26'0 0.0
2014-Oct-17 22:07N 48°26' W 123°26'0 0.0
2014-Oct-17 21:23N 48°26' W 123°26'0 0.0
2014-Oct-17 20:25N 48°26' W 123°26'0 0.0
2014-Oct-17 19:30N 48°26' W 123°26'0 0.0
2014-Oct-16 22:27N 48°26' W 123°26'1 0.8
2014-Oct-16 21:33N 48°26' W 123°27'6 5.7
2014-Oct-16 20:33N 48°21' W 123°30'1 0.8
2014-Oct-16 19:21N 48°21' W 123°32'0 0.4
2014-Oct-16 18:33N 48°21' W 123°31'2 2.3
2014-Oct-16 17:33N 48°22' W 123°28'  
Track history (hours):
 
Tides and Currents Weather Stations Pressure Air Temp Water Temp Dewpoint Dewpoint Depression Visibility Wind Speed Wind Dir Waves Ship Positions

Wolf 59

Last reported at 2014-Oct-25 17:07 UTC. Time now 2014-Oct-25 17:40 UTC.
Position N 48°26' W 123°26'.

Length 33 m; draft 2.6 m.

Type: Military. MMSI: 316011515.

Date/timePositionNaut miles runAvg speedWind from/ knotsBaromVisibWave heightAir tempDewpointWater temp
2014-Oct-25 17:07N 48°26' W 123°26'0 0.0
2014-Oct-25 16:22N 48°26' W 123°26'0 0.0
2014-Oct-25 15:31N 48°26' W 123°26'0 0.0
2014-Oct-25 14:22N 48°26' W 123°26'0 0.0
2014-Oct-25 12:28N 48°26' W 123°26'0 0.0
2014-Oct-25 11:31N 48°26' W 123°26'0 0.0
2014-Oct-25 10:31N 48°26' W 123°26'0 0.0
2014-Oct-25 08:22N 48°26' W 123°26'0 0.0
2014-Oct-24 23:31N 48°26' W 123°26'0 0.0
2014-Oct-24 22:19N 48°26' W 123°26'0 0.0
2014-Oct-24 21:13N 48°26' W 123°26'0 0.0
2014-Oct-24 20:25N 48°26' W 123°26'0 0.0
2014-Oct-24 16:22N 48°26' W 123°26'0 0.0
2014-Oct-24 15:31N 48°26' W 123°26'0 0.0
2014-Oct-24 13:31N 48°26' W 123°26'0 0.0
2014-Oct-24 12:31N 48°26' W 123°26'0 0.0
2014-Oct-24 11:31N 48°26' W 123°26'0 0.0
2014-Oct-24 10:31N 48°26' W 123°26'0 0.0
2014-Oct-24 09:10N 48°26' W 123°26'0 0.0
2014-Oct-24 07:25N 48°26' W 123°26'0 0.0
2014-Oct-24 06:31N 48°26' W 123°26'0 0.0
2014-Oct-24 05:07N 48°26' W 123°26'0 0.0
2014-Oct-24 04:25N 48°26' W 123°26'0 0.0
2014-Oct-24 03:19N 48°26' W 123°26'0 0.0
2014-Oct-24 02:25N 48°26' W 123°26'0 0.0
2014-Oct-24 01:31N 48°26' W 123°26'0 0.0
2014-Oct-24 00:25N 48°26' W 123°26'0 0.0
2014-Oct-23 23:19N 48°26' W 123°26'0 0.0
2014-Oct-23 22:07N 48°26' W 123°26'0 0.0
2014-Oct-23 21:22N 48°26' W 123°26'0 0.0
2014-Oct-23 20:28N 48°26' W 123°26'0 0.0
2014-Oct-23 19:19N 48°26' W 123°26'0 0.0
2014-Oct-23 16:25N 48°26' W 123°26'0 0.0
2014-Oct-23 09:07N 48°26' W 123°26'0 0.0
2014-Oct-23 08:10N 48°26' W 123°26'0 0.0
2014-Oct-23 07:25N 48°26' W 123°26'0 0.0
2014-Oct-23 06:31N 48°26' W 123°26'0 0.0
2014-Oct-23 05:31N 48°26' W 123°26'0 0.0
2014-Oct-23 04:31N 48°26' W 123°26'0 0.0
2014-Oct-23 03:28N 48°26' W 123°26'0 0.2
2014-Oct-23 02:32N 48°26' W 123°26'9 9.3
2014-Oct-23 01:33N 48°25' W 123°13'1515.0
2014-Oct-23 00:33N 48°40' W 123°15'10 9.9
2014-Oct-22 23:33N 48°49' W 123°21'1414.1
2014-Oct-22 22:34N 49°02' W 123°28'1413.7
2014-Oct-22 21:33N 49°12' W 123°43'1515.0
2014-Oct-22 20:33N 49°01' W 123°27'8 8.1
2014-Oct-22 19:33N 48°55' W 123°19'4 4.0
2014-Oct-22 18:33N 48°52' W 123°24'3 3.4
2014-Oct-22 17:32N 48°55' W 123°27'7 6.5
2014-Oct-22 16:31N 48°54' W 123°37'3 2.8
2014-Oct-22 15:33N 48°56' W 123°41'1 0.4
2014-Oct-22 11:29N 48°56' W 123°43'0 0.0
2014-Oct-22 10:33N 48°56' W 123°43'0 0.0
2014-Oct-22 09:33N 48°56' W 123°43'0 0.0
2014-Oct-22 08:33N 48°56' W 123°43'0 0.0
2014-Oct-22 07:33N 48°56' W 123°43'0 0.0
2014-Oct-22 06:33N 48°56' W 123°43'0 0.0
2014-Oct-22 05:33N 48°56' W 123°43'0 0.0
2014-Oct-22 04:32N 48°56' W 123°43'0 0.0
2014-Oct-22 03:32N 48°56' W 123°43'0 0.0
2014-Oct-22 02:32N 48°56' W 123°43'1 1.3
2014-Oct-22 01:33N 48°57' W 123°43'7 7.0
2014-Oct-22 00:33N 48°56' W 123°33'1211.9
2014-Oct-21 23:34N 48°47' W 123°20'1818.0
2014-Oct-21 22:34N 48°30' W 123°11'1211.2
2014-Oct-21 21:32N 48°26' W 123°27'0 0.5
2014-Oct-21 20:34N 48°25' W 123°26'1111.5
2014-Oct-21 19:34N 48°33' W 123°13'1716.6
2014-Oct-21 18:33N 48°49' W 123°20'7 6.5
2014-Oct-21 17:31N 48°43' W 123°26'7 7.1
2014-Oct-21 16:33N 48°37' W 123°30'6 6.4
2014-Oct-21 15:33N 48°31' W 123°33'0 0.1
2014-Oct-21 14:16N 48°30' W 123°33'0 0.0
2014-Oct-21 13:31N 48°30' W 123°33'0 0.0
2014-Oct-21 12:13N 48°30' W 123°33'0 0.0
2014-Oct-21 11:25N 48°30' W 123°33'0 0.0
2014-Oct-21 10:10N 48°30' W 123°33'0 0.0
2014-Oct-21 07:13N 48°30' W 123°33'0 0.0
2014-Oct-21 06:22N 48°30' W 123°33'0 0.0
2014-Oct-21 05:31N 48°30' W 123°33'0 0.0
2014-Oct-21 04:31N 48°30' W 123°33'0 0.0
2014-Oct-21 03:25N 48°30' W 123°33'0 0.0
2014-Oct-21 02:28N 48°30' W 123°33'0 0.0
2014-Oct-21 01:31N 48°30' W 123°33'0 0.0
2014-Oct-21 00:16N 48°30' W 123°33'0 0.0
2014-Oct-20 23:27N 48°30' W 123°33'3 2.5
2014-Oct-20 22:15N 48°33' W 123°32'7 9.0
2014-Oct-20 21:31N 48°39' W 123°28'4 4.5
2014-Oct-20 20:33N 48°43' W 123°32'5 5.0
2014-Oct-20 19:33N 48°48' W 123°33'7 6.7
2014-Oct-20 18:33N 48°54' W 123°36'3 2.8
2014-Oct-20 17:33N 48°55' W 123°32'7 6.7
2014-Oct-20 16:33N 48°50' W 123°26'2 2.2
2014-Oct-20 15:30N 48°51' W 123°29'0 0.0
2014-Oct-20 01:23N 48°51' W 123°30'0 0.0
2014-Oct-20 00:30N 48°51' W 123°30'1 0.6
2014-Oct-19 23:32N 48°51' W 123°29'8 8.2
2014-Oct-19 22:32N 48°45' W 123°21'9 8.7
2014-Oct-19 21:33N 48°37' W 123°20'9 8.8
2014-Oct-19 20:34N 48°29' W 123°12'9 9.2
2014-Oct-19 19:34N 48°22' W 123°20'5 5.5
2014-Oct-19 18:34N 48°25' W 123°27'1 0.0
2014-Oct-18 20:27N 48°26' W 123°26'0 0.0
2014-Oct-17 22:07N 48°26' W 123°26'0 0.0
2014-Oct-17 21:23N 48°26' W 123°26'0 0.0
2014-Oct-17 20:25N 48°26' W 123°26'0 0.0
2014-Oct-17 19:30N 48°26' W 123°26'0 0.0
2014-Oct-16 22:27N 48°26' W 123°26'1 0.8
2014-Oct-16 21:33N 48°26' W 123°27'6 5.7
2014-Oct-16 20:33N 48°21' W 123°30'1 0.8
2014-Oct-16 19:21N 48°21' W 123°32'0 0.4
2014-Oct-16 18:33N 48°21' W 123°31'2 2.3
2014-Oct-16 17:33N 48°22' W 123°28'  

Dump ship's entire track history